Regional Weather Roundup
Issued by NWS

Current Version | Previous Version | Text Only | Print | Product List | Glossary On
Versions: 1 2 3 4 5 6 7 8 9 10 11 12 13 14 15 16 17 18 19 20 21 22 23 24 25 26 27 28 29 30 31 32 33 34 35 36 37 38 39 40 41 42 43 44 45 46 47 48 49 50
000
ASCA44 KEWX 041920
RWRMX

LATIN AMERICA AND CARIBBEAN REGIONAL WEATHER ROUNDUP
NATIONAL WEATHER SERVICE AUSTIN/SAN ANTONIO TX
200 PM CDT FRI SEP 04 2015

NOTE: "FAIR" INDICATED FEW OR NO CLOUDS BELOW 12,000 FEET WITH NO
SIGNIFICANT WEATHER AND/OR OBSTRUCTIONS TO VISIBILITY.

BAJA CALIFORNIA

CITY           SKY/WX    TMP DP  RH WIND       PRES   REMARKS
LORETO         PTSUNNY   91  77  62 E12       29.80  HX 105
LA PAZ         MOSUNNY   93  64  38 W6        29.82F HX  95
MEXICALI       MOSUNNY   95  59  30 S5        29.75F HX  94
S.J. DEL CABO  MOSUNNY   93  66  40 SE14      29.84F HX  96
TIJUANA        SUNNY     73  54  49 W5        29.92F

NORTHWESTERN MEXICO

CITY           SKY/WX    TMP DP  RH WIND       PRES   REMARKS
CULIACAN       MOSUNNY   95  79  59 CALM      29.82F HX 112
DURANGO        MOSUNNY   81  43  26 NE8       30.16F
GUAYMAS        CLOUDY    95  75  52 CALM      29.77F HX 107
HERMOSILLO     CLOUDY    90  70  51 CALM      29.89F HX  95
CD. JUAREZ     PTSUNNY   86  57  37 NW12      29.99S
LOS MOCHIS     MOSUNNY   91  70  49 SW12      29.82F HX  97
OBREGON        MOSUNNY   93  66  40 W3        29.79F HX  96

NORTHEASTERN MEXICO

CITY           SKY/WX    TMP DP  RH WIND       PRES   REMARKS
CHIHUAHUA      MOSUNNY   88  52  29 W6        30.05F
MATAMOROS      PTSUNNY   93  77  59 SE18      29.91F HX 107
MONCLOVA       MOSUNNY   93  66  40 CALM      29.87F HX  96
MONTERREY      PTSUNNY   86  66  51 E16       29.90F
NUEVO LAREDO   PTSUNNY   99  72  41 SE7       29.86F HX 107
PIEDRAS NEGRAS PTSUNNY   97  70  41 E7        29.90F HX 103
REYNOSA        MOSUNNY   91  70  49 S9G21     29.87F HX  97
SALTILLO       PTSUNNY   88  68  51 N12       30.07F HX  91
TORREON        PTSUNNY   91  54  27 E6        30.00F
CD. VICTORIA   MOSUNNY   91  66  43 S12G24    29.88F HX  94

WESTERN MEXICO

CITY           SKY/WX    TMP DP  RH WIND       PRES   REMARKS
AGUASCALIENTES PTSUNNY   75  54  46 S9        30.22F
COLIMA         CLOUDY    81  73  78 S7        29.99
DEL BAJIO      PTSUNNY   79  59  50 SE12      30.24F
GUADALAJARA    PTSUNNY   75  63  64 E5        30.14F
MANZANILLO     LGT RAIN  79  77  94 SE21      29.82S
MAZATLAN       PTSUNNY   88  77  70 SW10      29.81F HX 100
P. VALLARTA    MOSUNNY   90  77  66 SW9       29.82F HX 102
URUAPAN        PTSUNNY   68  63  83 S7        30.17F
ZACATECAS      PTSUNNY   73  52  46 SW12      30.23F

CENTRAL MEXICO

CITY           SKY/WX    TMP DP  RH WIND       PRES   REMARKS
CUERNAVACA     PTSUNNY   77  63  61 S5        30.12F
MEXICO CITY    PTSUNNY   72  52  49 VRB3      30.27F
MORELIA        PTSUNNY   73  59  60 SE9       30.19F
POZA RICA      PTSUNNY   91  75  59 S7        29.88F HX 102
PUEBLA         MOSUNNY   72  52  49 SE6       30.28F
QUERETARO      PTSUNNY   75  55  50 SE6       30.25F
S. LUIS POTOSI PTSUNNY   77  52  41 E8        30.20F
TAMPICO        PTSUNNY   90  72  55 SE12      29.88F HX  96
TOLUCA         PTSUNNY   66  52  59 S12       30.34F

SOUTHERN MEXICO

CITY           SKY/WX    TMP DP  RH WIND       PRES   REMARKS
ACAPULCO       PTSUNNY   88  77  70 S7        29.86F HX 100
B. DE HUATULCO PTSUNNY   81  75  83 S8        29.96F
OAXACA         CLOUDY    75  57  53 SE9       30.16F
P. ESCONDIDO   PTSUNNY   84  75  74 S20       29.97F HX  92
VERACRUZ       MOSUNNY   90  77  66 E9        29.87F HX 102
ZIHUATANEJO    PTSUNNY   88  73  62 SW6       29.87F HX  96

YUCATAN PENINSULA

CITY           SKY/WX    TMP DP  RH WIND       PRES   REMARKS
CAMPECHE       MOSUNNY   91  75  59 E9        29.88F HX 102
CANCUN         MOSUNNY   90  75  62 E12       29.96S HX 100
CHETUMAL       MOSUNNY   88  79  74 CALM      29.91F HX 102
CD. DEL CARMEN MOSUNNY   90  75  62 SE14      29.88F HX 100
COZUMEL        MOSUNNY   86  75  70 SE8       29.95F HX  95
MERIDA         PTSUNNY   95  70  43 E15       29.91F HX 101
MINATITLAN     PTSUNNY   90  68  48 CALM      29.82F HX  93
TAPACHULA      PTSUNNY   90  73  58 CALM      29.88F HX  98
TUX. GUTIERREZ MOSUNNY   82  66  57 SE3       29.94F
VILLAHERMOSA   PTSUNNY   91  73  55 NE8       29.88F HX 100

CENTRAL AMERICA

CITY           SKY/WX    TMP DP  RH WIND       PRES   REMARKS
BELIZE CITY    MOSUNNY   91  77  62 SE9       29.89F HX 105
MANAGUA        PTCLDY    93  70  46 E16       29.80F HX  99

CARIBBEAN

CITY           SKY/WX    TMP DP  RH WIND       PRES   REMARKS
ARUBA          MOSUNNY   91  75  59 E23       29.83F HX 102
KINGSTON       MOSUNNY   90  77  66 SE24      29.89F HX 102
NASSAU         PTSUNNY   88  73  62 VRB3      29.98  THUNDER HX  96
SAN JUAN       MOSUNNY   88  75  66 NE16      29.94F HX  97
SANTO DOMINGO  MOSUNNY   90  73  58 SW6       29.92F HX  98
ST. CROIX      MOSUNNY   88  75  66 E10       29.95  HX  97
ST. KITTS      MOSUNNY   86  77  74 E6        29.94S HX  97
ST. THOMAS     CLOUDY    84  77  79 N8        29.95  HX  94

$$



USA.gov is the U.S. government's official web portal to all federal, state and local government web resources and services.